Regional Weather Roundup
Issued by NWS

Home | Current Version | Previous Version | Graphics & Text | Print | Product List | Glossary On
Versions: 1 2 3 4 5 6 7 8 9 10 11 12 13 14 15 16 17 18 19 20 21 22 23 24 25 26 27 28 29 30 31 32 33 34 35 36 37 38 39 40 41 42 43 44 45 46 47 48 49 50
000
ASUS43 KMKX 291500
RWRWI

WISCONSIN REGIONAL WEATHER ROUNDUP
NATIONAL WEATHER SERVICE MILWAUKEE/SULLIVAN WI
1000 AM CDT WED JUL 29 2015

NOTE: "FAIR" INDICATES FEW OR NO CLOUDS BELOW 12,000 FEET WITH NO
SIGNIFICANT WEATHER AND/OR OBSTRUCTIONS TO VISIBILITY.

WIZ001-002-006>008-014>016-023>028-291600-
NORTHWEST WISCONSIN

CITY           SKY/WX    TMP DP  RH WIND       PRES   REMARKS
SUPERIOR ARPT  CLOUDY    68  54  61 SW15G25   29.74S
ASHLAND        PTSUNNY   71  54  54 W16G32    29.76S
HAYWARD        MOSUNNY   70  50  49 W18G31    29.83S
SIREN          SUNNY     71  50  48 W18G32    29.85S
CUMBERLAND     SUNNY     68  50  52 W22G36    29.88S
RICE LAKE      SUNNY     70  51  50 W16G25    29.90S
CHETEK         SUNNY     71  53  51 W6G22     29.89S
LADYSMITH      SUNNY     71  52  50 W16G31    29.89S
EAU CLAIRE     NOT AVBL
MENOMONIE      SUNNY     74  49  40 W22G31    29.92F
NEW RICHMOND   SUNNY     73  49  41 W22G28    29.91F
OSCEOLA        SUNNY     73  52  48 SW21G30   29.93S
$$

WIZ003>005-009-010-017-018-291600-
NORTH CENTRAL WISCONSIN

CITY           SKY/WX    TMP DP  RH WIND       PRES   REMARKS
MANITOWISH WTR SUNNY     69  52  55 W17G29    29.81F
ARBOR VITAE    SUNNY     72  55  54 W13G28    29.83F
WOODRUFF       SUNNY     72  55  54 W13G28    29.83F
RHINELANDER    SUNNY     73  51  46 W18G33    29.86S
EAGLE RIVER    SUNNY     70  49  46 W17G30    29.82S
LAND O LAKES   SUNNY     71  50  46 SW17G28   29.82S
PHILLIPS       SUNNY     70  52  53 W14G22    29.85S
TOMAHAWK       SUNNY     70  51  51 SW12G23   29.87F
MEDFORD        SUNNY     69  53  55 SW18G30   29.90S
MERRILL        NOT AVBL
$$

WIZ029-030-035-036-043>047-291600-
CENTRAL WISCONSIN

CITY           SKY/WX    TMP DP  RH WIND       PRES   REMARKS
WAUSAU         MOSUNNY   75  50  41 W20G31    29.89F
MOSINEE        SUNNY     73  52  46 W14       29.92F
MARSHFIELD     SUNNY     74  51  44 W17G25    29.93F
STEVENS POINT  MOSUNNY   73  51  45 W16G24    29.93F
WAUPACA        MOSUNNY   79  48  34 W14G28    29.92F
WAUTOMA        NOT AVBL
WISC RAPIDS    SUNNY     77  48  35 W18G26    29.95F
CAMP DOUGLAS   NOT AVBL
$$

WIZ011>013-019>022-031-037>040-048>050-291600-
NORTHEAST WISCONSIN

CITY           SKY/WX    TMP DP  RH WIND       PRES   REMARKS
ANTIGO         MOSUNNY   72  52  49 W18G29    29.90S
SHAWANO        MOSUNNY   76  53  43 SW14G21   29.89F
OCONTO         PTSUNNY   77  56  47 W18G24    29.86F
STURGEON BAY   PTSUNNY   77  55  47 W18G24    29.88F
GREEN BAY      MOSUNNY   78  56  46 W16G25    29.89F
MANITOWOC      NOT AVBL
APPLETON       MOSUNNY   75  50  41 W16G24    29.92F
CLINTONVILLE   MOSUNNY   77  46  33 W15G21    29.89F
OSHKOSH        PTSUNNY   78  53  41 W12G17    29.92S
$$

WIZ032>034-041-042-053>061-291600-
SOUTHWEST WISCONSIN

CITY           SKY/WX    TMP DP  RH WIND       PRES   REMARKS
LA CROSSE      SUNNY     77  51  40 W14G25    29.97F
SPARTA         SUNNY     75  51  43 W10G18    29.98S
VIROQUA        SUNNY     73  54  50 W12G17    30.02R
BOSCOBEL       MOSUNNY   79  58  48 W7        30.00F HX  80
PRAIRIE DU CHI MOSUNNY   77  51  39 W13G18    30.01S
PLATTEVILLE    MOSUNNY   74  60  61 NW8       30.02F
$$

WIZ056-057-062-063-064-067-068-291600-
SOUTH CENTRAL WISCONSIN

CITY           SKY/WX    TMP DP  RH WIND       PRES   REMARKS
REEDSBURG      MOSUNNY   78  55  44 W13       29.97F
BARABOO/DELLS  MOSUNNY   76  50  40 W14       29.97F
LONE ROCK      NOT AVBL
MINERAL POINT  MOSUNNY   73  57  56 W8        30.02S
MADISON        PTSUNNY   77  58  51 VRB6      29.98S
MIDDLETON      PTSUNNY   76  57  50 NW9       30.00S
WATERTOWN      PTSUNNY   74  61  65 NW9       29.97R
MONROE         PTSUNNY   73  61  64 NW12G17   30.01S
JANESVILLE     NOT AVBL
$$

WIZ051-052-058>065-066-070>072-291600-
SOUTHEAST WISCONSIN

CITY           SKY/WX    TMP DP  RH WIND       PRES   REMARKS
MILWAUKEE      PTSUNNY   82  61  48 NW14      29.94F HX  83
WAUKESHA       SUNNY     77  63  61 W14G22    29.98S
MILWAUKEE/TIMM SUNNY     81  61  50 W10       29.96S HX  81
RACINE         PTSUNNY   78  64  61 W8        29.97S HX  80
BURLINGTON     PTSUNNY   74  62  64 NW8       29.97S
KENOSHA        PTSUNNY   77  65  66 NW9       29.97S
FOND DU LAC    PTSUNNY   78  51  38 W20G30    29.94R
SHEBOYGAN      CLOUDY    78  60  53 W8        29.93R
WEST BEND      PTSUNNY   73  61  64 W7        29.95S
JUNEAU         PTSUNNY   73  58  61 W8        29.97S
$$

LSZ147-162-291600-
LAKE SUPERIOR

STATION/POSITION TIME  TEMP    WIND        PRES    WAVE
                       AIR SEA DIR/SP/G            HT/PER
                 (UTC) (F)     (DEG/KT/KT) (MB)    (FT/S)
W MID LAKE BUOY  1350   65 60  230/ 21/ 27 1005.0R   6/ 6
DEVILS ISLAND    1400   67     240/ 31/ 36 1005.3F
PORT WING        1400   69     220/ 14/ 26 1007.1
SAXON HARBOR     1400   70                 1007.8
$$

LMZ867-665-643>646-291600-
LAKE MICHIGAN

STATION/POSITION TIME  TEMP    WIND        PRES    WAVE
                       AIR SEA DIR/SP/G            HT/PER
                 (UTC) (F)     (DEG/KT/KT) (MB)    (FT/S)
CHAMBERS ISLAND  1400   75     210/  9/ 14 1010.8F
S GREEN BAY BUOY 1300   75 74  250/ 16/ 19 1013.4R
N MID LAKE BUOY  1350   74 69  250/ 14/ 16 1009.8S   2/ 4
NORTHPORT PIER   1400   76     290/  6/ 16 1010.5F
SISTER BAY       1414   80     270/ 17/ 18   N/A
ALGOMA LAKESHORE 1412          330/  8/ 12   N/A
KEWAUNEE LAKESHO 1400   76     280/  7/ 10 1011.2F
SHEBOYGAN LAKESH 1400   77     260/  6/  7 1013.1R
PORT WASHINGTON  1400   79     300/  8/ 14 1013.9
ATWATER BUOY     1400   70     290/  6/  8 1015.2R
MILWAUKEE LAKESH 1400   77     310/  8/ 11   N/A
KENOSHA   LAKESH 1400   77     310/ 10/ 15 1013.9R
$$

TC  - TEMPERATURE IN CELSIUS
VSB - VISIBILITY IN STATUTE MILES
WCI - WIND CHILL INDEX
HX  - HEAT INDEX




USA.gov is the U.S. government's official web portal to all federal, state and local government web resources and services.